Location: Angwan Shehu
(11.2514°N, 7.4613°E)
Time: 20:28:48
(UTC+00:00)

Hubble Space Telescope - Visible Passes

Search period start: 05 March 2021 00:00
Search period end: 15 March 2021 00:00
Orbit: 535 x 539 km, 28.5° (Epoch: 05 March)

Date Brightness Start Highest point End Pass type
(mag) Time Alt. Az. Time Alt. Az. Time Alt. Az.
05 Mar 3.4 18:46:28 10° NNW 18:47:40 11° NNW 18:48:52 10° N visible
12 Mar 3.2 19:13:21 10° NNW 19:14:14 12° N 19:14:14 12° N visible
13 Mar 2.9 19:02:02 10° NNW 19:04:07 15° N 19:04:07 15° N visible
14 Mar 2.5 18:50:49 10° NNW 18:53:49 19° NNE 18:54:04 19° NNE visible
